Location: ?????????
(53.2086°N, 54.0693°E)
Time: 05:07:07
(UTC+00:00)

Cosmos 2322 - Pass Details

Date: 08 December 2019
Orbit: 842 x 853 km, 71.0° (Epoch: 24 January)

Event Time Altitude Azimuth Distance (km) Brightness Sun altitude
Rises 14:03:04 0° 224° (SW) 3,410 7.9 -16.2°
Reaches altitude 10° 14:05:33 10° 228° (SW) 2,477 7.1 -16.6°
Maximum altitude 14:11:10 58° 308° (NW) 987 4.2 -17.4°
Enters shadow 14:15:52 15° 25° (NNE) 2,147 5.5 -18.1°
